Regional Weather Roundup
Issued by NWS

Home | Current Version | Previous Version | Graphics & Text | Print | Product List | Glossary On
Versions: 1 2 3 4 5 6 7 8 9 10 11 12 13 14 15 16 17 18 19 20 21 22 23 24 25 26 27 28 29 30 31 32 33 34 35 36 37 38 39 40 41 42 43 44 45 46 47 48 49 50
000
ASUS44 KMEG 011710
RWRTN
TENNESSEE HOURLY STATE WEATHER ROUNDUP
NATIONAL WEATHER SERVICE MEMPHIS TN
1200 PM CDT MON SEP 01 2014

TNZ002-004-019-021-049-052-054-088>092-011800-
WEST TENNESSEE

CITY           SKY/WX    TMP DP  RH WIND       PRES   REMARKS
MEMPHIS INTL   MOSUNNY   88  73  61 SW8G17    30.07S HX  95
NWS MEMPHIS      N/A     84 N/A N/A MISG        N/A
JACKSON        MOSUNNY   85  73  67 SW13      30.06S HX  91
DYERSBURG      PTSUNNY   82  66  57 SW10G20   30.05S
UNION CITY     MOSUNNY   82  73  74 W14       30.02S
PARIS          MOSUNNY   82  72  69 SW15      30.04S
HUNTINGDON     MOSUNNY   82  72  72 SW9       30.05S
LEXINGTON      PTSUNNY   88  73  62 SW12      30.06S HX  96
SAVANNAH       SUNNY     88  75  66 SW10      30.09S HX  97
$$

TNZ008-025-027-028-033-062-065-066-011800-
NORTH MIDDLE TENNESSEE

CITY           SKY/WX    TMP DP  RH WIND       PRES   REMARKS
NASHVILLE      MOSUNNY   88  71  57 SW8G20    30.07F HX  94
DICKSON        SUNNY     84  72  65 W12       30.07S
PORTLAND       PTSUNNY   86  70  58 SW12      30.05F HX  90
CLARKSVILLE    PTSUNNY   85  73  67 SW14G21   30.02F HX  91
LEBANON        SUNNY     88  71  56 SW13      30.06F HX  93
SMYRNA         MOSUNNY   88  73  60 SW8       30.08F HX  95
MURFREESBORO   SUNNY     89  67  48 SW12      30.08S HX  92
COOKEVILLE     MOSUNNY   88  75  66 SW8       30.11S HX  97
LIVINGSTON     SUNNY     84  71  65 SW9       30.12S
GALLATIN       SUNNY     89  74  61 SW10      30.07F HX  97
CROSSVILLE     MOSUNNY   83  68  60 SW9       30.17S
$$

TNZ061-075-076-078-094-096-097-011800-
SOUTH MIDDLE TENNESSEE

CITY           SKY/WX    TMP DP  RH WIND       PRES   REMARKS
LEWISBURG      SUNNY     89  69  51 SW10      30.09F HX  93
FAYETTEVILLE   SUNNY     84  70  61 SW7       30.12F
TULLAHOMA      MOSUNNY   86  72  62 SW9       30.14S HX  92
WINCHESTER     MOSUNNY   86  72  62 W8        30.13S HX  92
MCMINNVILLE    MOSUNNY   86  73  66 SW10      30.12S HX  93
COLUMBIA         N/A     88  73  62 W8        30.08S HX  96
SHELBYVILLE    MOSUNNY   90  72  55 SW9       30.11F HX  96
$$

TNZ017-018-042-046-047-011800-
NORTHEAST TENNESSEE

CITY           SKY/WX    TMP DP  RH WIND       PRES   REMARKS
TRI CITIES     PTSUNNY   83  66  56 SW10G21   30.16F
ELIZABETHTON   MOSUNNY   82  68  61 W5        30.17F
$$

TNZ012-013-036-069-073-074-011800-
CENTRAL EAST TENNESSEE

CITY           SKY/WX    TMP DP  RH WIND       PRES   REMARKS
KNOXVILLE      MOSUNNY   86  70  58 SW9       30.12F HX  90
OAK RIDGE      MOSUNNY   87  72  60 VRB5      30.13F HX  93
GATLINBURG     MOSUNNY   88  68  51 SW3       30.13S HX  91
MORRISTOWN       N/A     86  70  58 W8        30.16F HX  90
$$

TNZ083-085-099-011800-
SOUTHEAST TENNESSEE

CITY           SKY/WX    TMP DP  RH WIND       PRES   REMARKS
CHATTANOOGA    PTSUNNY   88  71  57 VRB3      30.12F HX  94
$$

SKY/WX REPORTED AS FAIR MEANS FEW OR NO CLOUDS BELOW
12 THOUSAND FEET.



USA.gov is the U.S. government's official web portal to all federal, state and local government web resources and services.